Weather in Vasilyevskiy Mokh

Russia / Tver Oblast     57°00′56″N   35°55′01″E
temp.,
°C
wind,
m/s
gust,
m/s
humid.,
%
clouds,
%
prec.,
mm/h
press.,
hPa
HPBL,
m
3 august, tue
tue300:00+18ssw7149030 1.6 1000890
03:00+17wsw6138373 1.6 10021140
06:00+16wsw41083100 0.0 1004825
09:00+19wsw57625 0.0 1006999
12:00+21wsw685580 0.0 10071640
15:00+23wsw693615 0.0 10072620
18:00+21wsw484817 0.0 10081859
21:00+16wsw397023 0.0 1009319
4 august, wed
wed400:00+13wsw38854 0.0 1011167
03:00+12w27901 0.0 1013145
06:00+12w26870 0.0 1014172
09:00+17w24596 0.0 1015839
12:00+18w355369 0.0 10161024
15:00+21w35415 0.0 10151914
18:00+18w235488 0.0 101568
21:00+14ene226766 0.0 101718
5 august, thu
thu500:00+13sse1170100 0.0 101711
03:00+14se1164100 0.0 101711
06:00+14ese126785 0.0 101844
09:00+18e2354100 0.0 1017428
12:00+20se2348100 0.0 10171304
15:00+15ssw2592100 1.3 1017189
18:00+14ene1396100 1.8 1017158
21:00+13e3698100 7.3 1016388
6 august, fri
fri600:00+13ene3798100 3.9 1015440
03:00+13ene2499100 4.1 1015311
06:00+13ne3698100 0.2 1014454
09:00+13ne3596100 0.2 1014388
12:00+15ne3485100 0.1 1014613
15:00+17ne3480100 0.3 1013635
18:00+16ne3689100 0.6 1013486
21:00+14ne389486 0.7 1013368
7 august, sat
sat700:00+14ene4996100 0.0 1013380
03:00+15ene4998100 1.3 1012487
06:00+15ene4999100 3.9 1013445
09:00+15ene41098100 4.9 1013442
12:00+16ene4895100 0.1 1014524
15:00+18ene5988100 0.6 1013645
18:00+18e41091100 0.5 1014650
21:00+17e41199100 3.6 1013464